Location: Szczecin
(53.4381°N, 14.5422°E)
Time: 20:41:12
(UTC+01:00)

ISS - Visible Passes

Search period start: 18 January 2018 00:00
Search period end: 28 January 2018 00:00
Orbit: 402 x 407 km, 51.6° (Epoch: 18 January)

Date Brightness Start Highest point End Pass type
(mag) Time Alt. Az. Time Alt. Az. Time Alt. Az.
26 Jan -1.1 18:55:54 10° S 18:56:18 12° S 18:56:18 12° S visible
27 Jan -1.4 18:05:01 10° SSE 18:05:57 11° SE 18:06:18 11° SE visible
27 Jan -0.7 19:38:42 10° SW 19:38:58 12° SW 19:38:58 12° SW visible
